Regional Weather Roundup
Issued by NWS

Home | Current Version | Previous Version | Graphics & Text | Print | Product List | Glossary On
Versions: 1 2 3 4 5 6 7 8 9 10 11 12 13 14 15 16 17 18 19 20 21 22 23 24 25 26 27 28 29 30 31 32 33 34 35 36 37 38 39 40 41 42 43 44 45 46 47 48 49 50
000
ASUS43 KTOP 231359
RWRKS

WEATHER ROUNDUP FOR KANSAS
NATIONAL WEATHER SERVICE GOODLAND KS
900 AM CDT TUE SEP 23 2014

NOTE:  "FAIR" INDICATES FEW OR NO CLOUDS BELOW 12,000 FEET WITH NO
SIGNIFICANT WEATHER AND/OR OBSTRUCTIONS TO VISIBILITY.

KSZ001>006-013>018-027>032-041>047-231500-
NORTHWEST KANSAS

CITY           SKY/WX    TMP DP  RH WIND       PRES   REMARKS
GOODLAND       PTSUNNY   57  55  93 S10       30.07S
HILL CITY      CLOUDY    60  53  77 S16       30.07F
RUSSELL        PTSUNNY   57  53  86 SE23G30   30.08S
$$

KSZ061>065-074>080-084>089-231500-
SOUTHWEST KANSAS

CITY           SKY/WX    TMP DP  RH WIND       PRES   REMARKS
DODGE CITY     PTSUNNY   63  47  55 S16       30.11F
ELKHART          N/A     67  57  70 S17         N/A
GARDEN CITY    SUNNY     66  52  60 S16       30.07S
GREAT BEND     CLOUDY    57  52  82 S14       30.12F
LIBERAL        SUNNY     66  52  59 S17G23    30.12S
$$

KSZ066>073-081>083-090>101-231500-
SOUTHEAST KANSAS

CITY           SKY/WX    TMP DP  RH WIND       PRES   REMARKS
CHANUTE        MOSUNNY   61  56  83 S5        30.26R
COFFEYVILLE    PTSUNNY   62  56  80 S9        30.25R
HUTCHINSON     PTSUNNY   62  52  69 SE10      30.17F
NEWTON         CLOUDY    59  48  67 S5        30.24R
PARSONS        PTSUNNY   62  55  77 S7        30.26R
WICHITA INTL   PTSUNNY   63  52  67 S12       30.19S
WICHITA JABRA  PTSUNNY   64  52  64 S16       30.19F
WINFIELD       MOSUNNY   62  54  74 S12       30.23R
$$

KSZ007>012-019>026-033>040-048>060-102>105-231500-
NORTHEAST KANSAS

CITY           SKY/WX    TMP DP  RH WIND       PRES   REMARKS
CONCORDIA      CLOUDY    59  56  89 S8        30.13R
EMPORIA        PTSUNNY   58  54  86 S12       30.23S
LAWRENCE       MOSUNNY   60  54  80 SE5       30.25R
MANHATTAN      LGT RAIN  61  54  77 S8        30.19R
OLATHE IND     MOSUNNY   60  52  74 S9        30.26R
OLATHE EXE     PTSUNNY   58  53  84 S5        30.26R
SALINA         LGT RAIN  59  55  87 SE14      30.16F
TOPEKA BILLARD CLOUDY    60  54  80 SE6       30.23F
TOPEKA FORBES  CLOUDY    59  52  77 SE6       30.22F
$$



USA.gov is the U.S. government's official web portal to all federal, state and local government web resources and services.